| time (UTC) | temp F | wind direction | speed knots | gust knots | rain 1hr in | rain 24hr in | rain mn in | humidity % | barometer mb |
| 20260901080529 | 54 | 180 | 0.0 | 0.0 | 0.00 | 0.00 | 0.00 | 57 | 1020.2 |
| 20260901075529 | 55 | 180 | 0.0 | 0.0 | 0.00 | 0.00 | 0.00 | 58 | 1020.1 |
| 20260901074530 | 55 | 180 | 0.0 | 0.0 | 0.00 | 0.00 | 0.00 | 58 | 1020.1 |
| 20260901073533 | 55 | 180 | 0.0 | 0.0 | 0.00 | 0.00 | 0.00 | 58 | 1020.2 |
| 20260901071529 | 54 | 180 | 0.0 | 0.0 | 0.00 | 0.00 | 0.00 | 59 | 1020.1 |
| 20260901070531 | 54 | 180 | 0.0 | 0.0 | 0.00 | 0.00 | 0.00 | 59 | 1019.9 |
| 20260901064715 | 54 | 180 | 0.0 | 0.0 | 0.00 | 0.00 | 0.00 | 59 | 1019.8 |
| 20260901063717 | 54 | 180 | 0.0 | 0.0 | 0.00 | 0.00 | 0.00 | 59 | 1020.0 |
| 20260901062732 | 54 | 180 | 0.0 | 0.0 | 0.00 | 0.00 | 0.00 | 59 | 1020.1 |
| 20260901061816 | 54 | 180 | 0.0 | 0.0 | 0.00 | 0.00 | 0.00 | 59 | 1019.9 |
| 20260901060916 | 54 | 180 | 0.0 | 0.0 | 0.00 | 0.00 | 0.00 | 59 | 1020.0 |
| 20260901055917 | 54 | 180 | 0.0 | 0.0 | 0.00 | 0.00 | 0.00 | 59 | 1020.2 |
| 20260901054916 | 54 | 180 | 0.0 | 0.0 | 0.00 | 0.00 | 0.00 | 58 | 1020.3 |
| 20260901053917 | 54 | 180 | 0.0 | 0.0 | 0.00 | 0.00 | 0.00 | 57 | 1020.3 |
| 20260901053015 | 54 | 180 | 0.0 | 0.0 | 0.00 | 0.00 | 0.00 | 56 | 1020.4 |
| 20260901052014 | 55 | 180 | 0.0 | 0.0 | 0.00 | 0.00 | 0.00 | 55 | 1020.5 |
| 20260901051016 | 55 | 180 | 0.0 | 0.0 | 0.00 | 0.00 | 0.00 | 56 | 1020.4 |
| 20260901050016 | 55 | 180 | 0.0 | 0.0 | 0.00 | 0.00 | 0.00 | 56 | 1020.5 |
| 20260901045015 | 55 | 180 | 0.0 | 0.0 | 0.00 | 0.00 | 0.00 | 57 | 1020.5 |
| 20260901044014 | 55 | 180 | 0.0 | 0.0 | 0.00 | 0.00 | 0.00 | 56 | 1020.3 |
| 20260901043016 | 55 | 180 | 0.0 | 0.0 | 0.00 | 0.00 | 0.00 | 55 | 1020.5 |
| 20260901042015 | 56 | 180 | 0.0 | 0.0 | 0.00 | 0.00 | 0.00 | 55 | 1020.5 |
| 20260901041031 | 56 | 180 | 0.0 | 0.0 | 0.00 | 0.00 | 0.00 | 53 | 1020.4 |
| 20260901040014 | 57 | 180 | 0.0 | 0.0 | 0.00 | 0.00 | 0.00 | 52 | 1020.3 |
| 20260901035015 | 57 | 180 | 0.0 | 0.0 | 0.00 | 0.00 | 0.00 | 53 | 1020.2 |
| 20260901034032 | 58 | 180 | 0.0 | 0.0 | 0.00 | 0.00 | 0.00 | 52 | 1020.1 |
| 20260901032015 | 59 | 180 | 0.0 | 0.0 | 0.00 | 0.00 | 0.00 | 50 | 1020.1 |
| 20260901031114 | 59 | 180 | 0.0 | 0.0 | 0.00 | 0.00 | 0.00 | 49 | 1020.1 |
| 20260901030115 | 60 | 180 | 0.0 | 0.0 | 0.00 | 0.00 | 0.00 | 49 | 1019.9 |
| 20260901025114 | 60 | 180 | 0.0 | 0.0 | 0.00 | 0.00 | 0.00 | 47 | 1019.8 |
| 20260901024115 | 61 | 180 | 0.0 | 0.0 | 0.00 | 0.00 | 0.00 | 46 | 1019.8 |
| 20260901022214 | 63 | 180 | 0.0 | 0.0 | 0.00 | 0.00 | 0.00 | 44 | 1019.8 |
| 20260901021217 | 63 | 180 | 0.0 | 0.0 | 0.00 | 0.00 | 0.00 | 42 | 1020.0 |
| 20260901020214 | 64 | 180 | 0.0 | 0.9 | 0.00 | 0.00 | 0.00 | 43 | 1020.1 |
| 20260901015217 | 64 | 180 | 0.0 | 0.9 | 0.00 | 0.00 | 0.00 | 41 | 1019.9 |
| 20260901013316 | 65 | 159 | 0.0 | 0.0 | 0.00 | 0.00 | 0.00 | 42 | 1020.0 |
| 20260901012316 | 66 | 202 | 0.0 | 0.0 | 0.00 | 0.00 | 0.00 | 41 | 1019.9 |
| 20260901011315 | 66 | 188 | 0.0 | 0.9 | 0.00 | 0.00 | 0.00 | 41 | 1019.9 |
| 20260901010315 | 67 | 181 | 0.9 | 2.6 | 0.00 | 0.00 | 0.00 | 41 | 1019.8 |
| 20260901005314 | 67 | 225 | 0.0 | 1.7 | 0.00 | 0.00 | 0.00 | 40 | 1019.9 |
| 20260901003315 | 68 | 202 | 0.0 | 1.7 | 0.00 | 0.00 | 0.00 | 39 | 1019.9 |
| 20260901002315 | 68 | 217 | 1.7 | 4.3 | 0.00 | 0.00 | 0.00 | 40 | 1019.9 |
| 20260901001415 | 68 | 225 | 1.7 | 2.6 | 0.00 | 0.00 | 0.00 | 40 | 1019.7 |
| 20260901000415 | 69 | 247 | 0.9 | 1.7 | 0.00 | 0.00 | 0.00 | 39 | 1019.9 |
| 20260831235417 | 69 | 292 | 0.0 | 0.0 | 0.00 | 0.00 | 0.00 | 40 | 1019.9 |
| 20260831234514 | 70 | 215 | 0.9 | 2.6 | 0.00 | 0.00 | 0.00 | 40 | 1020.0 |
| 20260831233515 | 70 | 181 | 0.0 | 0.9 | 0.00 | 0.00 | 0.00 | 40 | 1020.0 |
| 20260831232517 | 70 | 94 | 0.0 | 3.5 | 0.00 | 0.00 | 0.00 | 39 | 1020.1 |
| 20260831231514 | 70 | 180 | 0.9 | 1.7 | 0.00 | 0.00 | 0.00 | 40 | 1020.0 |
| 20260831230515 | 70 | 137 | 2.6 | 5.2 | 0.00 | 0.00 | 0.00 | 40 | 1020.2 |
| 20260831225530 | 71 | 181 | 2.6 | 5.2 | 0.00 | 0.00 | 0.00 | 39 | 1020.2 |
| 20260831224515 | 71 | 195 | 0.9 | 4.3 | 0.00 | 0.00 | 0.00 | 40 | 1020.3 |
| 20260831223614 | 71 | 243 | 1.7 | 3.5 | 0.00 | 0.00 | 0.00 | 40 | 1020.2 |
| 20260831222615 | 71 | 174 | 0.9 | 2.6 | 0.00 | 0.00 | 0.00 | 38 | 1020.3 |
| 20260831221616 | 71 | 310 | 0.9 | 3.5 | 0.00 | 0.00 | 0.00 | 40 | 1020.2 |
| 20260831220616 | 72 | 215 | 2.6 | 3.5 | 0.00 | 0.00 | 0.00 | 39 | 1020.3 |
| 20260831215616 | 72 | 223 | 2.6 | 5.2 | 0.00 | 0.00 | 0.00 | 39 | 1020.3 |
| 20260831214616 | 72 | 191 | 2.6 | 6.1 | 0.00 | 0.00 | 0.00 | 38 | 1020.4 |
| 20260831213715 | 72 | 219 | 2.6 | 3.5 | 0.00 | 0.00 | 0.00 | 37 | 1020.4 |
| 20260831212814 | 73 | 173 | 0.0 | 0.9 | 0.00 | 0.00 | 0.00 | 38 | 1020.5 |
| 20260831211816 | 73 | 169 | 3.5 | 6.1 | 0.00 | 0.00 | 0.00 | 37 | 1020.3 |
| 20260831210815 | 73 | 228 | 1.7 | 4.3 | 0.00 | 0.00 | 0.00 | 37 | 1020.5 |
| 20260831205816 | 74 | 184 | 4.3 | 6.1 | 0.00 | 0.00 | 0.00 | 36 | 1020.6 |
| 20260831204915 | 74 | 192 | 3.5 | 5.2 | 0.00 | 0.00 | 0.00 | 35 | 1020.5 |
| 20260831203914 | 74 | 193 | 1.7 | 2.6 | 0.00 | 0.00 | 0.00 | 34 | 1020.7 |
| 20260831202916 | 73 | 29 | 0.0 | 0.9 | 0.00 | 0.00 | 0.00 | 33 | 1020.7 |
| 20260831201015 | 74 | 229 | 1.7 | 5.2 | 0.00 | 0.00 | 0.00 | 32 | 1020.8 |
| 20260831200015 | 73 | 174 | 1.7 | 2.6 | 0.00 | 0.00 | 0.00 | 30 | 1020.7 |
| 20260831195015 | 73 | 146 | 4.3 | 6.1 | 0.00 | 0.00 | 0.00 | 30 | 1020.9 |
| 20260831194016 | 73 | 199 | 3.5 | 5.2 | 0.00 | 0.00 | 0.00 | 28 | 1020.9 |
| 20260831193113 | 73 | 214 | 0.9 | 2.6 | 0.00 | 0.00 | 0.00 | 28 | 1020.9 |
| 20260831192116 | 74 | 192 | 2.6 | 3.5 | 0.00 | 0.00 | 0.00 | 29 | 1021.1 |
| 20260831190314 | 73 | 217 | 4.3 | 5.2 | 0.00 | 0.00 | 0.00 | 28 | 1021.3 |
| 20260831185315 | 73 | 202 | 2.6 | 4.3 | 0.00 | 0.00 | 0.00 | 28 | 1021.1 |
| 20260831184314 | 73 | 243 | 3.5 | 5.2 | 0.00 | 0.00 | 0.00 | 28 | 1021.2 |
| 20260831183413 | 73 | 220 | 1.7 | 3.5 | 0.00 | 0.00 | 0.00 | 27 | 1021.2 |
| 20260831182415 | 73 | 238 | 0.9 | 2.6 | 0.00 | 0.00 | 0.00 | 27 | 1021.1 |
| 20260831181413 | 73 | 227 | 3.5 | 6.1 | 0.00 | 0.00 | 0.00 | 28 | 1021.3 |
| 20260831180416 | 71 | 225 | 0.0 | 1.7 | 0.00 | 0.00 | 0.00 | 28 | 1021.2 |
| 20260831175415 | 70 | 159 | 0.9 | 2.6 | 0.00 | 0.00 | 0.00 | 30 | 1021.1 |
| 20260831173614 | 69 | 189 | 1.7 | 3.5 | 0.00 | 0.00 | 0.00 | 32 | 1021.2 |
| 20260831172616 | 69 | 171 | 1.7 | 3.5 | 0.00 | 0.00 | 0.00 | 34 | 1021.1 |
| 20260831171615 | 69 | 141 | 0.9 | 2.6 | 0.00 | 0.00 | 0.00 | 35 | 1021.0 |
| 20260831170615 | 69 | 210 | 0.9 | 1.7 | 0.00 | 0.00 | 0.00 | 33 | 1021.0 |
| 20260831165614 | 70 | 158 | 1.7 | 3.5 | 0.00 | 0.00 | 0.00 | 33 | 1020.9 |
| 20260831164615 | 71 | 199 | 1.7 | 2.6 | 0.00 | 0.00 | 0.00 | 34 | 1020.8 |
| 20260831163715 | 71 | 112 | 0.0 | 1.7 | 0.00 | 0.00 | 0.00 | 39 | 1020.8 |
| 20260831162813 | 70 | 135 | 0.9 | 0.9 | 0.00 | 0.00 | 0.00 | 40 | 1020.9 |
| 20260831161815 | 69 | 225 | 0.0 | 0.0 | 0.00 | 0.00 | 0.00 | 41 | 1020.9 |
| 20260831160815 | 68 | 157 | 0.0 | 0.9 | 0.00 | 0.00 | 0.00 | 45 | 1021.0 |
| 20260831155813 | 65 | 209 | 0.0 | 1.7 | 0.00 | 0.00 | 0.00 | 47 | 1021.1 |
| 20260831154817 | 63 | 225 | 0.0 | 1.7 | 0.00 | 0.00 | 0.00 | 51 | 1021.3 |
| 20260831153814 | 60 | 157 | 0.0 | 0.0 | 0.00 | 0.00 | 0.00 | 54 | 1021.2 |
| 20260831151815 | 57 | 157 | 0.0 | 0.0 | 0.00 | 0.00 | 0.00 | 59 | 1021.2 |
| 20260831150815 | 56 | 157 | 0.0 | 0.0 | 0.00 | 0.00 | 0.00 | 60 | 1021.2 |
| 20260831145814 | 56 | 157 | 0.0 | 0.0 | 0.00 | 0.00 | 0.00 | 60 | 1021.2 |
| 20260831144814 | 55 | 157 | 0.0 | 0.0 | 0.00 | 0.00 | 0.00 | 60 | 1021.1 |
| 20260831143815 | 55 | 157 | 0.0 | 0.0 | 0.00 | 0.00 | 0.00 | 61 | 1020.9 |
| 20260831142914 | 55 | 157 | 0.0 | 0.0 | 0.00 | 0.00 | 0.00 | 59 | 1020.9 |
| 20260831141914 | 54 | 157 | 0.0 | 0.0 | 0.00 | 0.00 | 0.00 | 57 | 1020.9 |
| 20260831140917 | 54 | 157 | 0.0 | 0.0 | 0.00 | 0.00 | 0.00 | 57 | 1020.9 |
| 20260831140015 | 55 | 157 | 0.0 | 0.0 | 0.00 | 0.00 | 0.00 | 55 | 1020.8 |
| 20260831134015 | 54 | 157 | 0.0 | 0.0 | 0.00 | 0.00 | 0.00 | 54 | 1020.7 |
| 20260831133033 | 54 | 157 | 0.0 | 0.0 | 0.00 | 0.00 | 0.00 | 55 | 1020.6 |
| 20260831132113 | 54 | 157 | 0.0 | 0.0 | 0.00 | 0.00 | 0.00 | 54 | 1020.6 |
| 20260831130214 | 55 | 157 | 0.0 | 0.0 | 0.00 | 0.00 | 0.00 | 53 | 1020.5 |
| 20260831125214 | 55 | 157 | 0.0 | 0.0 | 0.00 | 0.00 | 0.00 | 54 | 1020.4 |
| 20260831124215 | 55 | 157 | 0.0 | 0.0 | 0.00 | 0.00 | 0.00 | 53 | 1020.3 |
| 20260831122316 | 55 | 157 | 0.0 | 0.0 | 0.00 | 0.00 | 0.00 | 52 | 1020.5 |
| 20260831121317 | 55 | 157 | 0.0 | 0.0 | 0.00 | 0.00 | 0.00 | 52 | 1020.6 |
| 20260831120414 | 55 | 157 | 0.0 | 0.0 | 0.00 | 0.00 | 0.00 | 52 | 1020.6 |
| 20260831113513 | 55 | 157 | 0.0 | 0.0 | 0.00 | 0.00 | 0.00 | 52 | 1020.7 |
| 20260831112516 | 55 | 157 | 0.0 | 0.0 | 0.00 | 0.00 | 0.00 | 53 | 1020.7 |
| 20260831111614 | 55 | 157 | 0.0 | 0.0 | 0.00 | 0.00 | 0.00 | 52 | 1020.7 |
| 20260831110616 | 56 | 157 | 0.0 | 0.0 | 0.00 | 0.00 | 0.00 | 52 | 1020.7 |
| 20260831105614 | 57 | 157 | 0.0 | 0.0 | 0.00 | 0.00 | 0.00 | 51 | 1020.6 |
| 20260831104616 | 56 | 157 | 0.0 | 0.0 | 0.00 | 0.00 | 0.00 | 51 | 1020.7 |
| 20260831103615 | 55 | 157 | 0.0 | 0.0 | 0.00 | 0.00 | 0.00 | 52 | 1020.7 |
| 20260831102615 | 55 | 157 | 0.0 | 0.0 | 0.00 | 0.00 | 0.00 | 54 | 1020.5 |
| 20260831100714 | 55 | 157 | 0.0 | 0.0 | 0.00 | 0.00 | 0.00 | 55 | 1020.9 |
| 20260831095715 | 55 | 157 | 0.0 | 0.0 | 0.00 | 0.00 | 0.00 | 55 | 1020.7 |
| 20260831094715 | 54 | 157 | 0.0 | 0.0 | 0.00 | 0.00 | 0.00 | 56 | 1020.7 |
| 20260831093714 | 54 | 157 | 0.0 | 0.0 | 0.00 | 0.00 | 0.00 | 57 | 1020.6 |
| 20260831092714 | 55 | 157 | 0.0 | 0.0 | 0.00 | 0.00 | 0.00 | 57 | 1020.8 |
| 20260831091814 | 55 | 157 | 0.0 | 0.0 | 0.00 | 0.00 | 0.00 | 56 | 1020.8 |
| 20260831090813 | 55 | 157 | 0.0 | 0.0 | 0.00 | 0.00 | 0.00 | 55 | 1020.8 |
| 20260831085814 | 55 | 157 | 0.0 | 0.0 | 0.00 | 0.00 | 0.00 | 56 | 1020.9 |
| 20260831084814 | 55 | 157 | 0.0 | 0.0 | 0.00 | 0.00 | 0.00 | 57 | 1020.9 |
| 20260831083912 | 55 | 157 | 0.0 | 0.0 | 0.00 | 0.00 | 0.00 | 58 | 1021.0 |
| 20260831082917 | 55 | 157 | 0.0 | 0.0 | 0.00 | 0.00 | 0.00 | 57 | 1021.0 |
| 20260831081917 | 56 | 157 | 0.0 | 0.0 | 0.00 | 0.00 | 0.00 | 58 | 1021.1 |